Track FAST 1 (USA 222) now! 10-day predictions FAST 1 (USA 222) is classified as:
1 37227U 10062F 25346.02848663 .00001555 00000-0 18980-3 0 9992 2 37227 71.9652 194.1846 0012905 109.6447 250.6113 14.84790732338089